Tracking 29489 objects as of 9-Sep-2024
HD Live streaming from Space Station
objects crossing your sky now

BREEZE-M R/B

Track BREEZE-M R/B now!


NORAD ID: 42750
Int'l Code: 2017-032B
Perigee: 1,795.8 km
Apogee: 34,466.5 km
Inclination: 31.3 °
Period: 636.2 minutes
Semi major axis: 24502 km
RCS: Unknown
Launch date: June 8, 2017
Source: Commonwealth of Independent States (former USSR) (CIS)
Launch site: TYURATAM MISSILE AND SPACE COMPLEX (TTMTR)

Note: This is a ROCKET BODY
Your satellite tracking list
Your tracking list is empty




NASA's NSSDC Master Catalog

Two Line Element Set (TLE):
1 42750U 17032B   24252.64057697 -.00000204  00000-0  00000+0 0  9996
2 42750  31.3324   9.2318 6666903 330.1377   4.6653  2.26358785 60016
Source of the keplerian elements: AFSPC